Regional Weather Roundup
Issued by NWS Wakefield, VA

Home | Current Version | Previous Version | Graphics & Text | Print | Product List | Glossary On
Versions: 1 2 3 4 5 6 7 8 9 10 11 12 13 14 15 16 17 18 19 20 21 22 23 24 25 26 27 28 29 30 31 32 33 34 35 36 37 38 39 40 41 42 43 44 45 46 47 48 49 50
000
ASUS41 KAKQ 272115
RWRAKQ

REGIONAL WEATHER ROUNDUP
NATIONAL WEATHER SERVICE WAKEFIELD VA
500 PM EDT WED MAY 27 2015

Note: "fair" indicates few or no clouds below 12,000 feet with no
significant weather and/or obstructions to visibility. * = Denotes
station may not report precipitation (e.g., rain,snow,etc.),
thunder or fog.

VAZ042-051-052>054-056-272200-
NORTHERN VIRGINIA

CITY           SKY/WX    TMP DP  RH WIND       PRES   REMARKS
WASH NATIONAL  PTSUNNY   80  66  62 N9        30.12F
DULLES         PTSUNNY   77  69  76 CALM      30.12F
FORT BELVOIR   LGT RAIN  81  68  65 VRB3      30.11S
QUANTICO       MOSUNNY   88  64  44 SW10      30.11F
FREDERICKSBRG* MOSUNNY   90  66  45 SW13      30.11S
STAFFORD*      MOSUNNY   88  63  43 SW7       30.15S
WARRENTON      MOSUNNY   86  69  57 SW7       30.11F
CULPEPER*      MOSUNNY   86  65  49 S10G17    30.11F
MANASSAS*      MOSUNNY   81  68  65 N8        30.12S
LEESBURG*      PTSUNNY   81  70  69 CALM      30.13F
WINCHESTER     PTSUNNY   82  61  47 SE5       30.13S
FRONT ROYAL*   FAIR      79  68  69 CALM      30.12S
LURAY*         FAIR      82  70  65 NW3       30.13F
$$

VAZ048-049-060>072-079>083-272200-
CENTRAL AND SOUTH CENTRAL VIRGINIA

CITY           SKY/WX    TMP DP  RH WIND       PRES   REMARKS
RICHMOND       PTSUNNY   89  66  46 S15       30.13F
CHESTERFIELD*  NOT AVBL
PETERSBURG*    MOSUNNY   89  72  57 SW10      30.15S HX  95
HANOVER        MOSUNNY   88  67  49 S12       30.15S
TAPPAHANNOCK*  MOSUNNY   89  61  38 S7        30.14S
QUINTON*       FAIR      87  68  53 SW9       30.13F
CHARLOTTSVILLE MOSUNNY   86  62  44 SW10      30.13F
GORDONSVILLE*  FAIR      86  65  49 S10       30.12S
ORANGE*        MOSUNNY   88  64  45 S9        30.14S
LOUISA*        MOSUNNY   86  66  51 SW8       30.13S
BUMPASS*       FAIR      85  66  54 SW5       30.13S
FARMVILLE*     MOSUNNY   86  63  45 SW10G20   30.14S
CREWE*         MOCLDY    85  65  51 W7        30.16S
FORT PICKETT*  MOCLDY    85  67  55 SW12      30.16S
CHASE CITY*    FAIR      85  69  57 SW3       30.17F
CLARKSVILLE*   FAIR      86  66  51 S5        30.17S
SOUTH HILL*    MOSUNNY   84  67  56 SW7       30.22S
LAWRENCEVILLE* MOCLDY    88  68  51 SW8       30.16S
EMPORIA*       PTSUNNY   86  66  51 S7        30.17S
$$

VAZ088>098-272200-
SOUTHEAST VIRGINIA

CITY           SKY/WX    TMP DP  RH WIND       PRES   REMARKS
NORFOLK        PTSUNNY   86  68  54 S16G26    30.16S
VIRGINIA BEACH MOSUNNY   84  69  60 S17G24    30.17S
NORFOLK NAVAL  MOSUNNY   90  69  50 S10G18    30.17F
WEST POINT*    SUNNY     90  64  42 S8        30.15S
SALUDA*        MOCLDY    87  70  56 S8        30.13F
NEWPORT NEWS   MOSUNNY   91  69  48 S15       30.15S HX  96
LANGLEY AFB    MOSUNNY   85  71  62 S17G23    30.14S
FORT EUSTIS    PTSUNNY   87  69  54 SW9       30.13F
WILLIAMSBURG*  SUNNY     91  72  52 S9        30.15F HX  98
HR EXEC AP*    FAIR      84  72  65 S16       30.18S
FRANKLIN*      PTSUNNY   85  68  56 S10       30.16S
WAKEFIELD      SUNNY     88  70  55 S6        30.15F
$$

VAZ020-022-025-037-045-272200-
WEST CENTRAL AND SOUTHWEST VIRGINIA

CITY           SKY/WX    TMP DP  RH WIND       PRES   REMARKS
STAUNTON*        N/A    N/A N/A N/A MISG        N/A
WAYNESBORO*    FAIR      80  66  61 S7        30.16F
HOT SPRINGS VA PTSUNNY   74  57  55 SW6       30.28S
LYNCHBURG      MOSUNNY   83  63  50 S13       30.17F
DANVILLE       MOSUNNY   84  66  54 VRB7      30.17F
SOUTH BOSTON*  FAIR      85  65  50 MISG      30.17S
MARTINSVILLE   MOSUNNY   84  62  47 S7        30.21F
ROANOKE        PTSUNNY   83  63  50 S10       30.17F
BLACKSBURG     PTSUNNY   79  57  46 NW7       30.24F
DUBLIN*        PTSUNNY   82  56  41 W5        30.23F
MARION*        MOSUNNY   78  57  48 SW7       30.26F
HILLSVILLE*    PTSUNNY   74  63  69 S6        30.26F
RICHLANDS*     FAIR      77  58  52 SW6       30.24F
WISE*          MOSUNNY   79  54  41 S7        30.24F
ABINGDON*      PTSUNNY   82  57  42 W5        30.21F
$$

MDZ021>025-VAZ099-100-272200-
SOUTHERN MARYLAND AND THE DELMARVA PENINSULA

CITY           SKY/WX    TMP DP  RH WIND       PRES   REMARKS
PATUXENT RIVER PTSUNNY   81  69  67 SE12      30.12S
BAY BRIDGE APT NOT AVBL
LEONARDTOWN    NOT AVBL
DOVER          PTSUNNY   87  72  61 S14       30.10R
GEORGETOWN     PTSUNNY   83  69  62 S17G23    30.15R
EASTON         NOT AVBL
CAMBRIDGE      NOT AVBL
SALISBURY      SUNNY     81  68  64 S16G24    30.15S
OCEAN CITY     SUNNY     73  63  70 S13G26    30.19S
WALLOPS ISLAND SUNNY     74  65  73 S20G29    30.19F
ACCOMACK*      SUNNY     77  68  73 S21G31    30.18S
$$

NCZ012>017-030>032-272200-
NORTH CENTRAL AND EASTERN NORTH CAROLINA

CITY           SKY/WX    TMP DP  RH WIND       PRES   REMARKS
ROANOKE RAPIDS FAIR      86  68  54 S10       30.16S
RALEIGH        PTSUNNY   87  68  52 SW8       30.17F
ELIZABETH CITY SUNNY     81  68  64 SE10G23   30.21S
AHOSKIE*       SUNNY     84  69  61 SE10      30.17F
EDENTON*         N/A     82  69  64 S16G24    30.20S
CURRITUCK*     SUNNY     82  65  55 S9G17     30.21S
KILL DEVIL HLS SUNNY     78  65  63 S13G20    30.22F
MANTEO         SUNNY     77  65  67 S20       30.24F
CAPE HATTERAS  SUNNY     78  61  55 S16       30.26S
TARBORO*       FAIR      86  69  57 S9        30.17S
GOLDSBORO      MOSUNNY   84  70  61 S7        30.15F
WASHINGTON     MOSUNNY   82  68  63 S13G18    30.19F
GREENVILLE     PTSUNNY   82  72  69 S9G18     30.19S
NEW BERN       MOSUNNY   81  65  58 S13       30.23F
WILMINGTON     MOSUNNY   80  68  66 S14       30.22F
$$

VAZ048-272200-
ELSEWHERE

CITY           SKY/WX    TMP DP  RH WIND       PRES   REMARKS
HARRISBURG PA  PTSUNNY   76  68  76 VRB7      30.10S
BALTIMORE      PTSUNNY   73  65  75 NW7       30.12R
ANNAPOLIS      PTSUNNY   78  62  57 NW12      30.12R
ANDREWS AFB    MOSUNNY   80  67  63 NW8       30.12R
PHILADELPHIA   PTSUNNY   88  67  49 SW17G25   30.10R
HENDERSON NC   MOSUNNY   85  61  44 SW10      30.19S
GREENSBORO     PTSUNNY   82  63  52 SW8G16    30.19F
ROCKY MOUNT    PTSUNNY   87  68  52 VRB6      30.16F
$$

VAZ100-272200-
MARINE

STATION/POSITION TIME  TEMP    WIND        PRES    WAVE   SWELL
                       AIR SEA DIR/SP/G            HT/PER HT/PER
                 (UTC) (F)     (DEG/KT/KT) (MB)    (FT/S) (FT/S)
BRANDYWINE LGT   2000   67 66  180/ 27/ 28 1020.2F
CAPE MAY NJ      2000   68 72  160/ 18/ 23 1020.5F
LEWES DE         2000   80 64  180/ 12/ 17 1020.4F
15NM E FENWICK I 2050   66 63              1021.5F   4/ 5
OCEAN-CITY-INLET 2000   64 59  220/ 13/ 15 1022.1F
WACHAPREAGUE VA  2000   74 78  190/ 18/ 23 1022.2F
THOMAS POINT MD  2100   75 69  180/ 17/ 20 1020.0S
GOOSES REEF MD   2100   73 69  170/ 12/ 16 1020.9S   1/ 2
COVE POINT MD    2000   73     190/ 16/ 19 1020.8F
SOLOMONS ISLAND  2000      72                N/A
BISHOPS HEAD MD  2000   78 81  160/ 17/ 19 1020.3F
PINEY POINT MD   2000          220/ 11/ 12   N/A
CAMBRIDGE MD     2000   85 71  180/  6/ 15 1020.3S
LEWISETTA VA     2000   84 76              1019.9F
RAPPAHANNOCK LGT 2000          150/ 14/ 15 1022.0F
STINGRAY PT      2100   74 74  170/ 17/ 21 1021.1F   2/ 3
YORK RVR RNG VA  2000   75     140/ 12/ 13 1020.5F
YORKTOWN VA      2000   85 72  200/ 10/ 13 1020.6F
JAMESTOWN VA     2100   83 77  200/ 10/ 16 1019.6F
DOMINION TERM VA 2000   81     190/  8/ 10 1021.3F
KIPTOPEKE VA     2000      79  170/ 24/ 30   N/A
CHES BAY BRIDGE  2000   81 70  150/ 13/ 15 1021.1F
CAPE HENRY VA    2000   74     140/ 17/ 22 1020.7F
CHESAPEAKE LGHT  2000   69     170/ 28/ 30 1022.5F
WILLOUBY STN VA  2000   83     180/ 18/ 21 1022.0F
CAPE HENRY BUOY  2028      63                N/A     4/ 5
1ST LANDING BUOY 2100      72              1021.2F
CAPE CHARLES BUO 2026      68                N/A     4/ 4
OFFSHORE WE BUOY 2011      66                N/A     4/ 4   2/13
64NM E OF VA BCH 2050   68 64  170/ 16/ 17 1023.4F   3/ 7   2/ 7
DUCK PIER NC     2000   74 58  160/ 19/ 22 1022.4F
44100 DUCK FRF   2024      65                N/A     3/ 7
44056 DUCK FRF   2011      65                N/A     2/ 5
OREGON INLET NC  2000   77 77  160/ 16/ 21 1024.3F
HATTERAS NC      2000   76 75  160/ 13/ 18 1024.4F
DIAMOND SHLS NC  2050   75 77  160/ 16/ 17 1024.6F   3/ 7   2/ 7
CAPE LOOKOUT NC  2100   74     150/ 14/ 16 1023.8F
$$



USA.gov is the U.S. government's official web portal to all federal, state and local government web resources and services.